Location: Newark
(23.3970°S, 47.6010°W)
Time: 21:49:27
(UTC+00:00)

Tiros 1 despin weight - Pass Details

Date: 22 February 2020
Orbit: 593 x 642 km, 48.2° (Epoch: 05 April)

Event Time Altitude Azimuth Distance (km) Brightness Sun altitude
Rises 14:01:01 0° 313° (NW) 2,875 ? 66.2°
Reaches altitude 10° 14:03:18 10° 311° (NW) 1,983 ? 66.7°
Maximum altitude 14:07:52 75° 225° (SW) 655 ? 67.6°
Drops below altitude 10° 14:12:32 10° 139° (SE) 2,030 ? 68.5°
Sets 14:14:54 0° 137° (SE) 2,950 ? 68.9°
